www.pogodaiklimat.ru
ПОГОДА в Мироновке

Архив погоды в Мироновке (Киевская область, Украина)

Время
(UTC), дата
18 27.09
21 27.09
00 28.09
03 28.09
06 28.09
09 28.09
12 28.09
15 28.09
18 28.09
21 28.09
00 29.09
03 29.09
06 29.09
09 29.09
12 29.09
15 29.09
18 29.09
21 29.09
00 30.09
03 30.09
06 30.09
09 30.09
12 30.09
15 30.09
18 30.09
21 30.09
00 1.10
03 1.10
06 1.10
09 1.10
12 1.10
15 1.10
18 1.10
21 1.10
00 2.10
03 2.10
06 2.10
09 2.10
12 2.10
15 2.10
18 2.10
21 2.10
00 3.10
03 3.10
06 3.10
09 3.10
12 3.10
15 3.10
18 3.10
21 3.10
00 4.10
03 4.10
06 4.10
09 4.10
12 4.10
15 4.10
Ветер
(напр.,м/с)
Видим. Явления Облачность Т
(С)
Тd
(С)
f
(%)
Тe
(С)
Тes
(С)
Комфортность P
(гПа)
Po
(гПа)
Тmin
(С)
Tmax
(С)
R
(мм)
R24
(мм)
S
(см)
штиль 0 2200 м дымка {ливн. дождь} 3/0
[Ac trans]
+12.7 +12.3 97 +12 +12 1001.6 983.6 +17.8 0.7
штиль 0 200 м туман ?/? +12.2 +12.2 100 +11 +11 1001.7 983.6
штиль 0 300 м слаб. морось {туман} туман ?/? +12.2 +12.2 100 +11 +11 1001.5 983.4
штиль 0 200 м туман {морось} ?/? +12.1 +12.1 100 +11 +11 1001.3 983.2
штиль 0 800 м туман {морось} ?/? +12.4 +12.4 100 +12 +12 1001.6 983.6 +10.9 0.0
ЮВ 2 16 км {туман} 10/10 840 м
[Sc]
+15.4 +11.7 79 +15 +15 1001.3 983.4
ЮВ 2 17 км {туман} 10/10 840 м
[Sc]
+16.0 +12.2 78 +16 +16 1001.1 983.3
штиль 0 9000 м дымка {ливн. дождь} 10/10 800 м
[Sc]
+15.8 +13.3 85 +16 +16 1002.1 984.3
Ю 2 8000 м дымка {ливн. дождь} 9/5 600 м
[Sc Ac trans]
+14.3 +13.0 92 +14 +14 1003.3 985.4 +16.2 0.3
штиль 0 9000 м дымка ясно +11.4 +9.4 88 +11 +11 1006.0 987.8
штиль 0 4700 м дымка ясно +7.9 +7.3 96 +7 +7 1007.4 988.9
штиль 0 3600 м дымка 10/0
[Ac trans Cc]
+6.6 +6.2 97 +5 +5 1008.7 990.1
С 1 9000 м дымка 10/3 600 м
[Sc Ac lent Ci ing]
+11.8 +9.4 85 +12 +12 1009.2 991.0 +6.5
ЮВ 3 20 км 10/0
[Ac trans Ci sp]
+17.4 +6.8 50 +17 +21 1009.0 991.1
ЮВ 4 20 км 10/1 600 м
[Cb calv Ac lent Cc]
+20.0 +8.6 48 +21 +23 комфорт 1008.6 990.9
В 2 20 км 9/1 600 м
[Sc Ac trans Cc]
+18.0 +11.5 66 +19 +19 1008.3 990.5
ЮВ 3 13 км в посл. час ливневой дождь 10/10 750 м
[Cb calv]
+16.0 +13.0 82 +16 +16 1008.5 990.6 +21.0 0.0
Ю 2 6000 м гроза, ливневой дождь 10/10 720 м
[Cb cap]
+15.8 +15.1 96 +16 +16 1009.0 991.1
штиль 0 3700 м зарница {гроза, ливн. дождь} 8/3 600 м
[Cb calv Ac trans]
+14.7 +14.2 97 +14 +14 1009.7 991.7
штиль 0 2400 м дымка 9/3 600 м
[Sc Ac trans Ci fib]
+14.9 +14.6 98 +15 +15 1009.9 991.9
штиль 0 4500 м дымка 9/8 500 м
[St Ci fib]
+16.4 +15.9 97 +16 +17 1011.4 993.5 +14.5 6
СЗ 1 8000 м дымка 10/10 540 м
[Sc]
+18.0 +16.3 90 +19 +19 1012.5 994.6
Ю 1 18 км 10/0
[Cc]
+20.6 +16.3 76 +25 +30 комфорт 1013.1 995.4
штиль 0 20 км 4/0
[Ci fib]
+21.5 +15.3 68 +25 +25 комфорт 1013.8 996.1
штиль 0 4300 м дымка ясно +16.0 +15.0 94 +16 +16 1014.9 996.9 +22.3
ЮВ 2 4700 м дымка 8/0
[Ac trans]
+16.2 +15.0 93 +16 +16 1015.3 997.3
штиль 0 5000 м дымка 6/0
[Ci sp]
+15.4 +14.3 93 +15 +15 1015.6 997.5
штиль 0 3300 м дымка 6/0
[Ac trans Ci fib]
+14.6 +13.7 94 +14 +14 1015.1 997.0
З 2 8000 м дымка 8/0
[Ac trans Ci sp]
+16.4 +14.5 89 +16 +18 1016.0 998.0 +14.4
З 2 20 км 8/0
[Ac trans Ci]
+21.0 +13.0 60 +24 +30 комфорт 1015.6 997.8
ЮЗ 2 20 км 9/3 600 м
[Cu Sc Ac trans Cs]
+22.8 +12.1 51 +25 +27 комфорт 1014.2 996.6
штиль 0 20 км 8/3 1000 м
[Sc Ac trans Cc]
+21.3 +15.1 68 +24 +24 комфорт 1013.0 995.3
ЮЗ 2 9000 м гроза, ливневой дождь 10/10 840 м
[Cb cap]
+16.4 +14.3 87 +16 +16 1012.3 994.3 +23.3 4
В 1 6000 м в посл. час ливневой дождь {гроза} 9/8 840 м
[Cb calv Ac trans]
+14.4 +13.7 96 +15 +15 1008.5 990.5
Ю 3 15 км зарница {гроза, ливн. дождь} 3/1 600 м
[Cb calv Ci fib]
+15.6 +11.6 77 +15 +15 1005.5 987.6
штиль 0 8000 м гроза, ливневой дождь 10/10 840 м
[Cb cap]
+14.1 +12.8 92 +14 +14 1003.0 985.0
Ю 3 5000 м в посл. час ливневой дождь {гроза} 10/10 800 м
[Cb calv]
+15.5 +14.8 96 +15 +15 1000.2 982.4 +13.8 3
З 4 9000 м дымка {ливн. дождь} 10/10 800 м
[Cb calv]
+15.4 +13.6 89 +14 +14 999.6 981.8
З 7 15 км {ливн. дождь} 10/10 800 м
[Cb calv]
+13.6 +10.0 79 +11 +11 1000.3 982.3
З 5 19 км 10/10 800 м
[Cb calv]
+12.8 +7.5 70 +11 +11 1000.6 982.6
З 5 14 км 9/8 870 м
[Cb calv Ac trans]
+11.0 +8.2 83 +8 +8 1001.7 983.5 +16.4 0.6
З 3 7000 м слаб. ливневой дождь 9/9 800 м
[Cb cap Ac trans]
+9.6 +7.5 87 +7 +7 1001.8 983.6
З 4 8000 м слаб. ливневой дождь 10/10 800 м
[Cb cap]
+9.6 +7.3 86 +7 +7 1002.1 983.8
З 2 5000 м слаб. ливневой дождь 10/10 800 м
[Cb cap]
+8.3 +7.9 97 +6 +6 1001.3 983.0
З 6 12 км {ливн. дождь} 9/8 800 м
[Cb calv Ac trans]
+11.0 +8.2 83 +8 +8 1001.6 983.4 +7.7 4
З 7 20 км 10/8 840 м
[Cb calv Ac trans Ci fib]
+13.1 +7.0 66 +11 +11 1002.4 984.4
ЮЗ 7 20 км {ливн. дождь} 9/5 600 м
[Cb calv Ac trans Ci fib]
+13.9 +6.5 61 +12 +12 1002.6 984.6
ЮЗ 5 20 км 8/3 1000 м
[Sc Ac trans Ci fib]
+12.3 +6.7 69 +10 +10 1003.2 985.1
ЮЗ 7 17 км 10/0
[Ac trans Cs]
+10.9 +6.9 76 +8 +8 1003.3 985.1 +14.7 0.0
З 5 9000 м слаб. ливневой дождь 10/10 800 м
[Cb cap]
+8.5 +6.8 89 +5 +5 1004.9 986.5
ЮЗ 4 9000 м дымка {ливн. дождь} 10/10 800 м
[Cb calv]
+7.6 +5.4 86 +4 +4 1006.5 988.0
ЮЗ 5 13 км 10/3 600 м
[Sc Ac und]
+8.4 +5.5 82 +5 +5 1007.1 988.7
ЮЗ 5 12 км 10/8 800 м
[Cb calv Ac und]
+8.9 +5.9 81 +5 +5 1008.9 990.5 +7.5 0.4
З 3 15 км {ливн. дождь} 10/8 750 м
[Cb calv Ac und]
+10.0 +5.7 75 +8 +8 1011.1 992.7
З 4 20 км {ливн. дождь} 10/6 870 м
[Sc Ac und]
+12.0 +4.0 58 +10 +11 1012.4 994.1
ЮЗ 3 19 км в посл. час ливневой дождь 10/10 800 м
[Cb calv]
+10.9 +5.5 69 +9 +9 1013.9 995.5
Местоположение метеостанции Мироновка (Киевская область, Украина): широта 49.67 долгота 31.00 высота над уровнем моря 153 м.
В архиве по умолчанию представлена погода в Мироновке за последнюю неделю. Архивные данные за месяц целиком и за предыдущие месяцы, начиная с января 2011 года, Вы можете получить, выбрав интересующий диапазон дат из раскрывающегося списка и нажав кнопку "Найти!".
*Определитесь, кто Вы:
Внимание! Время в таблицах - всемирное. Для получения местного времени необходимо прибавить поправку, которая равна 2 ч.
Смотрите также архив погоды в соседних городах и на ближайших метеорологических станциях:
Партнеры нашего сайта:      
Пояснения к столбцам:
  • Ветер - указаны скорость ветра в м/с - средняя за 10 мин, порывы в срок и между сроками (в фигурных скобках) и направление, откуда дует ветер: С - северный,
  • СВ - северо-восточный, В - восточный, ЮВ - юго-восточный, Ю - южный, ЮЗ - юго-западный, З - западный, СЗ - северо-западный.
  • Видимость - горизонтальная дальность видимости в метрах или километрах. При видимости от 1 до 10 км при отсутствии осадков обычно наблюдается дымка, при ухудшении видимости до 1 км и менее - туман. В сухую погоду видимость может ухудшаться дымом, пылью или мглою.
  • Явления - указаны атмосферные явления, наблюдавшиеся в срок или в последний час перед сроком; фигурными скобками обозначены явления, наблюдавшиеся между сроками (за 1-3 часа до срока); квадратными скобками обозначены град или гололедные отложения с указанием их диаметра в мм.
  • Облачность - указаны через наклонную черту общая и нижняя облачность в баллах и высота нижней границы облаков в метрах; квадратными скобками обозначены формы облаков: Ci - перистые, Cs - перисто-слоистые, Cc - перисто-кучевые, Ac - высококучевые, As - высокослоистые, Sc - слоисто-кучевые, Ns - слоисто-дождевые, Cu - кучевые, Cb - кучево-дождевые. Подробнее классификацию облаков см. в Атласе облаков (PDF).
  • T - Температура воздуха - температура, измеренная на высоте 2 м над землей.
  • Td - Температура точки росы - температура, при понижении до которой содержащийся в воздухе водяной пар достигнет насыщения.
  • f - Относительная влажность воздуха - влажноcть воздуха, измеренная на высоте 2 м над землей.
  • Te - Эффективная температура - температура, которую ощущает одетый по сезону человек в тени. Характеристика душности погоды. При расчете учитывается влияние влажности воздуха и скорости ветра на теплоощущения человека.
  • Tes - Эффективная температура на солнце - температура, которую ощущает человек, с поправкой на солнечный нагрев. Характеристика знойности погоды. Зависит от высоты солнца над горизонтом, облачности и скорости ветра. Ночью, в пасмурную погоду, а также при ветре 12 м/с и более поправка равна нулю.
  • P - Атмосферное давление - приведенное к уровню моря атмосферное давление.
  • Po - Атмосферное давление - измеренное на уровне метеостанции атмосферное давление.
  • Tmin - Минимальная температура - минимум температуры воздуха на высоте 2 м над землей.
  • Tmax - Максимальная температура - максимум температуры воздуха на высоте 2 м над землей.
  • R - Количество осадков - Количество выпавших осадков за период времени, мм. При наведении курсора мыши на число - период времени, за который выпало указанное количество осадков.
  • R24 - Количество осадков - Количество выпавших осадков за 24 часа, мм.
  • S - Снежный покров - Высота снежного покрова, см. При наведении курсора мыши на число - состояние снежного покрова и степень покрытия местности в баллах.